• în România
  • Lista ţărilor
  • Pe 7 zile
  • Temperatura apei
  • Hartă satelitară
  • Meteo pe hartă
  • Widget-uri
  • user-avatar
    Intrare

    Meteo pe oră la Elbasan

    Astăzi, 26 Martie, Duminică

    Timp Temperatura Precipitaţii Vânt Presiune Umiditate
    00:00 +11°C° 0 mm 1 m/s 736 mmHg 90%
    01:00 +11°C° 0 mm 1 m/s 736 mmHg 90%
    02:00 +11°C° 0 mm 1 m/s 735 mmHg 90%
    03:00 +10°C° 0 mm 1 m/s 735 mmHg 90%
    04:00 +10°C° 0 mm 1 m/s 735 mmHg 90%
    05:00 +11°C° 0 mm 1 m/s 735 mmHg 85%
    06:00 +13°C° 0 mm 1 m/s 735 mmHg 80%
    07:00 +14°C° 0 mm 1 m/s 734 mmHg 71%
    08:00 +16°C° 0 mm 2 m/s 734 mmHg 65%
    09:00 +17°C° 0 mm 2 m/s 734 mmHg 59%
    10:00 +19°C° 0 mm 2 m/s 734 mmHg 53%
    11:00 +19°C° 0,1 mm 3 m/s 733 mmHg 54%
    12:00 +19°C° 0,1 mm 3 m/s 733 mmHg 55%
    13:00 +19°C° 0,1 mm 4 m/s 733 mmHg 55%
    14:00 +18°C° 0,2 mm 4 m/s 732 mmHg 59%
    15:00 +18°C° 0,2 mm 4 m/s 732 mmHg 62%
    16:00 +17°C° 0,2 mm 4 m/s 732 mmHg 66%
    17:00 +14°C° 0,4 mm 3 m/s 733 mmHg 75%
    18:00 +14°C° 0,4 mm 2 m/s 733 mmHg 84%
    19:00 +12°C° 0,4 mm 1 m/s 733 mmHg 93%
    20:00 +12°C° 0,2 mm 1 m/s 734 mmHg 93%
    21:00 +11°C° 0,2 mm 1 m/s 734 mmHg 93%
    22:00 +11°C° 0,2 mm 1 m/s 735 mmHg 93%
    23:00 +10°C° 0 mm 1 m/s 735 mmHg 92%

    Mâine, 27 Martie, Luni

    Timp Temperatura Precipitaţii Vânt Presiune Umiditate
    00:00 +9°C° 0 mm 2 m/s 735 mmHg 91%
    01:00 +9°C° 0 mm 2 m/s 735 mmHg 90%
    02:00 +8°C° 0,1 mm 2 m/s 735 mmHg 89%
    03:00 +8°C° 0,1 mm 2 m/s 735 mmHg 87%
    04:00 +8°C° 0,1 mm 2 m/s 735 mmHg 86%
    05:00 +8°C° 0,1 mm 2 m/s 736 mmHg 83%
    06:00 +8°C° 0,1 mm 2 m/s 736 mmHg 79%
    07:00 +9°C° 0,1 mm 3 m/s 736 mmHg 76%
    08:00 +10°C° 0,3 mm 2 m/s 736 mmHg 69%
    09:00 +13°C° 0,3 mm 2 m/s 737 mmHg 63%
    10:00 +14°C° 0,3 mm 2 m/s 737 mmHg 56%
    11:00 +15°C° 0,3 mm 2 m/s 737 mmHg 56%
    12:00 +15°C° 0,3 mm 2 m/s 737 mmHg 55%
    13:00 +16°C° 0,3 mm 2 m/s 737 mmHg 55%
    14:00 +15°C° 0,4 mm 2 m/s 737 mmHg 57%
    15:00 +15°C° 0,4 mm 2 m/s 737 mmHg 60%
    16:00 +14°C° 0,4 mm 2 m/s 737 mmHg 63%
    17:00 +13°C° 0,3 mm 2 m/s 737 mmHg 68%
    18:00 +12°C° 0,3 mm 2 m/s 737 mmHg 74%
    19:00 +10°C° 0,3 mm 2 m/s 738 mmHg 79%
    20:00 +9°C° 0,1 mm 2 m/s 738 mmHg 80%
    21:00 +9°C° 0,1 mm 2 m/s 738 mmHg 81%
    22:00 +9°C° 0,1 mm 2 m/s 739 mmHg 82%
    23:00 +8°C° 0 mm 2 m/s 739 mmHg 83%

    Poimâine, 28 Martie, Marţi

    Timp Temperatura Precipitaţii Vânt Presiune Umiditate
    00:00 +8°C° 0 mm 2 m/s 739 mmHg 84%
    01:00 +8°C° 0 mm 2 m/s 739 mmHg 85%
    02:00 +7°C° 0 mm 2 m/s 739 mmHg 85%
    03:00 +7°C° 0 mm 2 m/s 739 mmHg 85%
    04:00 +7°C° 0 mm 2 m/s 739 mmHg 85%
    05:00 +7°C° 0 mm 2 m/s 739 mmHg 82%
    06:00 +8°C° 0 mm 2 m/s 739 mmHg 79%
    07:00 +8°C° 0 mm 2 m/s 739 mmHg 76%
    08:00 +10°C° 0 mm 2 m/s 739 mmHg 69%
    09:00 +13°C° 0 mm 2 m/s 739 mmHg 61%
    10:00 +15°C° 0 mm 2 m/s 739 mmHg 53%
    11:00 +16°C° 0 mm 2 m/s 739 mmHg 50%
    12:00 +17°C° 0 mm 2 m/s 739 mmHg 47%
    13:00 +17°C° 0 mm 2 m/s 739 mmHg 44%
    14:00 +17°C° 0 mm 3 m/s 738 mmHg 45%
    15:00 +17°C° 0 mm 3 m/s 738 mmHg 46%
    16:00 +17°C° 0 mm 3 m/s 738 mmHg 46%
    17:00 +13°C° 0 mm 3 m/s 738 mmHg 54%
    18:00 +11°C° 0 mm 3 m/s 738 mmHg 63%
    19:00 +9°C° 0 mm 2 m/s 738 mmHg 71%
    20:00 +9°C° 0 mm 2 m/s 739 mmHg 70%
    21:00 +9°C° 0 mm 2 m/s 739 mmHg 70%
    22:00 +8°C° 0 mm 2 m/s 739 mmHg 70%
    23:00 +8°C° 0 mm 2 m/s 739 mmHg 70%

    29 Martie, Miercuri

    Timp Temperatura Precipitaţii Vânt Presiune Umiditate
    00:00 +8°C° 0 mm 2 m/s 739 mmHg 70%
    01:00 +7°C° 0 mm 2 m/s 739 mmHg 69%
    02:00 +7°C° 0 mm 2 m/s 739 mmHg 69%
    03:00 +7°C° 0 mm 2 m/s 739 mmHg 69%
    04:00 +7°C° 0 mm 2 m/s 739 mmHg 69%
    05:00 +8°C° 0 mm 2 m/s 739 mmHg 66%
    06:00 +9°C° 0 mm 2 m/s 739 mmHg 63%
    07:00 +10°C° 0 mm 2 m/s 739 mmHg 61%
    08:00 +13°C° 0 mm 2 m/s 739 mmHg 53%
    09:00 +16°C° 0 mm 1 m/s 739 mmHg 45%
    10:00 +19°C° 0 mm 1 m/s 739 mmHg 37%
    11:00 +19°C° 0 mm 2 m/s 739 mmHg 35%
    12:00 +20°C° 0 mm 2 m/s 739 mmHg 33%
    13:00 +20°C° 0 mm 2 m/s 738 mmHg 31%
    14:00 +20°C° 0 mm 3 m/s 738 mmHg 34%
    15:00 +19°C° 0 mm 3 m/s 738 mmHg 37%
    16:00 +19°C° 0 mm 3 m/s 737 mmHg 39%
    17:00 +16°C° 0 mm 3 m/s 737 mmHg 49%
    18:00 +14°C° 0 mm 2 m/s 737 mmHg 59%
    19:00 +10°C° 0 mm 2 m/s 737 mmHg 69%
    20:00 +10°C° 0 mm 2 m/s 738 mmHg 69%
    21:00 +10°C° 0 mm 1 m/s 738 mmHg 69%
    22:00 +10°C° 0 mm 1 m/s 738 mmHg 68%
    23:00 +10°C° 0 mm 1 m/s 738 mmHg 68%

    30 Martie, Joi

    Timp Temperatura Precipitaţii Vânt Presiune Umiditate
    00:00 +9°C° 0 mm 1 m/s 738 mmHg 68%
    01:00 +9°C° 0 mm 1 m/s 738 mmHg 67%
    02:00 +9°C° 0 mm 1 m/s 738 mmHg 67%
    03:00 +9°C° 0 mm 1 m/s 738 mmHg 68%
    04:00 +9°C° 0 mm 1 m/s 738 mmHg 68%
    05:00 +9°C° 0 mm 2 m/s 738 mmHg 66%
    06:00 +10°C° 0 mm 2 m/s 738 mmHg 64%
    07:00 +12°C° 0 mm 2 m/s 738 mmHg 62%
    08:00 +14°C° 0 mm 2 m/s 738 mmHg 55%
    09:00 +16°C° 0 mm 2 m/s 738 mmHg 49%
    10:00 +19°C° 0 mm 3 m/s 738 mmHg 42%
    11:00 +19°C° 0 mm 3 m/s 738 mmHg 41%
    12:00 +20°C° 0 mm 3 m/s 738 mmHg 41%
    13:00 +21°C° 0 mm 3 m/s 737 mmHg 40%
    14:00 +20°C° 0,1 mm 3 m/s 737 mmHg 43%
    15:00 +19°C° 0,1 mm 4 m/s 737 mmHg 45%
    16:00 +19°C° 0,1 mm 4 m/s 737 mmHg 48%
    17:00 +17°C° 0 mm 3 m/s 737 mmHg 56%
    18:00 +13°C° 0 mm 3 m/s 737 mmHg 64%
    19:00 +12°C° 0 mm 2 m/s 738 mmHg 73%
    20:00 +11°C° 0 mm 3 m/s 738 mmHg 74%
    21:00 +10°C° 0 mm 3 m/s 739 mmHg 75%
    22:00 +10°C° 0 mm 3 m/s 739 mmHg 77%
    23:00 +10°C° 0 mm 3 m/s 739 mmHg 78%

    31 Martie, Vineri

    Timp Temperatura Precipitaţii Vânt Presiune Umiditate
    00:00 +9°C° 0 mm 3 m/s 739 mmHg 80%
    01:00 +9°C° 0 mm 3 m/s 739 mmHg 81%
    02:00 +8°C° 0 mm 2 m/s 739 mmHg 82%
    03:00 +8°C° 0 mm 2 m/s 739 mmHg 82%
    04:00 +8°C° 0 mm 2 m/s 739 mmHg 83%
    05:00 +9°C° 0 mm 2 m/s 739 mmHg 79%
    06:00 +10°C° 0 mm 2 m/s 739 mmHg 75%
    07:00 +12°C° 0 mm 2 m/s 740 mmHg 72%
    08:00 +14°C° 0 mm 2 m/s 740 mmHg 63%
    09:00 +16°C° 0 mm 2 m/s 740 mmHg 53%
    10:00 +18°C° 0 mm 2 m/s 740 mmHg 44%
    11:00 +19°C° 0 mm 2 m/s 739 mmHg 42%
    12:00 +21°C° 0 mm 1 m/s 739 mmHg 39%
    13:00 +22°C° 0 mm 1 m/s 739 mmHg 36%
    14:00 +20°C° 0 mm 2 m/s 738 mmHg 38%
    15:00 +20°C° 0 mm 2 m/s 738 mmHg 41%
    16:00 +19°C° 0 mm 3 m/s 738 mmHg 43%
    17:00 +17°C° 0 mm 2 m/s 738 mmHg 53%
    18:00 +14°C° 0 mm 1 m/s 738 mmHg 63%
    19:00 +12°C° 0 mm 1 m/s 738 mmHg 72%
    20:00 +12°C° 0 mm 1 m/s 738 mmHg 74%
    21:00 +11°C° 0 mm 1 m/s 738 mmHg 75%
    22:00 +11°C° 0 mm 1 m/s 738 mmHg 76%
    23:00 +10°C° 0 mm 1 m/s 738 mmHg 75%
    Arată mai mult